Weather History for Vero Beach, FL

Change the Weather History Date:

Wednesday, December 11, 2013

  Actual Average Record
Temperature  
Mean Temperature 73 °F 65 °F  
Max Temperature 81 °F 75 °F 86 °F (1986)
Min Temperature 65 °F 56 °F 32 °F (1981)
Degree Days  
Heating Degree Days 0 3  
Month to date heating degree days 1 26  
Since 1 July heating degree days 12 56  
Cooling Degree Days 8 3  
Month to date cooling degree days 62 40  
Year to date cooling degree days 3535 3351  
Growing Degree Days 22 (Base 50)    
Moisture  
Dew Point 69 °F    
Average Humidity 85    
Maximum Humidity 100    
Minimum Humidity 69    
Precipitation  
Precipitation 0.00 in 0.06 in 1.25 in (1969)
Month to date precipitation 1.86 0.79  
Year to date precipitation 44.07 50.47  
Sea Level Pressure  
Sea Level Pressure 30.19 in    
Wind  
Wind Speed 6 mph (NNE)    
Max Wind Speed 13 mph    
Max Gust Speed 17 mph    
Visibility 9 miles    
Events      
T = Trace of Precipitation, MM = Missing Value Source: NWS Daily Summary

Daily Weather History Graph

Daily Weather History Graph

Search for Another Location

Airport:

Trip Planner

Search our weather history database for the weather conditions in past years. The results will help you decide how hot, cold, wet, or windy it might be!

Date:

Astronomy

Dec. 11, 2013 Rise Set
Actual Time 7:02 AM EST 5:27 PM EST
Civil Twilight 6:36 AM EST 5:53 PM EST
Nautical Twilight 6:07 AM EST 6:22 PM EST
Astronomical Twilight 5:39 AM EST 6:51 PM EST
Moon 1:39 PM EST (12/11) 1:45 AM EST (12/11)
Length of Visible Light 11h 16m
Length of Day
10h 25m
Waxing Gibbous, 71% of the Moon is Illuminated
Dec 11
Waxing Gibbous
Dec 17
Full
Dec 25
Last Quarter
Jan 1
New
Jan 7
First Quarter

Hourly Weather History & Observations

Time (EST) Temp. Heat Index Dew Point Humidity Pressure Visibility Wind Dir Wind Speed Gust Speed Precip Events Conditions
12:13 AM 73.4 °F - 71.6 °F 94% 30.18 in 10.0 mi North 9.2 mph - N/A   Overcast
12:53 AM 73.0 °F - 71.1 °F 93% 30.17 in 10.0 mi NNW 5.8 mph - N/A   Overcast
1:53 AM 72.0 °F - 70.0 °F 93% 30.17 in 10.0 mi North 9.2 mph - N/A   Mostly Cloudy
2:34 AM 71.6 °F - 69.8 °F 94% 30.17 in 10.0 mi North 6.9 mph - N/A   Mostly Cloudy
2:53 AM 70.0 °F - 69.1 °F 97% 30.16 in 10.0 mi North 8.1 mph - N/A   Partly Cloudy
3:53 AM 70.0 °F - 69.1 °F 97% 30.17 in 10.0 mi North 6.9 mph - N/A   Mostly Cloudy
4:53 AM 70.0 °F - 68.0 °F 93% 30.17 in 10.0 mi North 8.1 mph - N/A   Clear
5:53 AM 70.0 °F - 68.0 °F 93% 30.18 in 10.0 mi NNW 8.1 mph - N/A   Scattered Clouds
6:45 AM 69.8 °F - 68.0 °F 94% 30.19 in 10.0 mi NNW 5.8 mph - N/A   Mostly Cloudy
6:53 AM 68.0 °F - 68.0 °F 100% 30.19 in 10.0 mi NNW 4.6 mph - N/A   Mostly Cloudy
7:40 AM 68.0 °F - 68.0 °F 100% 30.20 in 9.0 mi Calm Calm - N/A   Scattered Clouds
7:53 AM 69.1 °F - 68.0 °F 96% 30.21 in 9.0 mi NNW 3.5 mph - N/A   Mostly Cloudy
8:53 AM 77.0 °F - 69.1 °F 76% 30.22 in 10.0 mi NE 10.4 mph - N/A   Mostly Cloudy
9:53 AM 79.0 °F - 70.0 °F 74% 30.24 in 10.0 mi NE 11.5 mph - N/A   Partly Cloudy
10:53 AM 80.1 °F 83.2 °F 70.0 °F 71% 30.23 in 10.0 mi NE 10.4 mph - N/A   Scattered Clouds
11:31 AM 78.8 °F - 71.6 °F 78% 30.23 in 10.0 mi NE 9.2 mph - N/A   Mostly Cloudy
11:53 AM 79.0 °F - 71.1 °F 77% 30.22 in 10.0 mi ENE 9.2 mph - N/A   Mostly Cloudy
12:53 PM 79.0 °F - 70.0 °F 74% 30.19 in 10.0 mi East 8.1 mph - N/A   Scattered Clouds
1:53 PM 80.1 °F 83.6 °F 71.1 °F 74% 30.17 in 10.0 mi ENE 8.1 mph - N/A   Scattered Clouds
2:30 PM 80.6 °F 84.6 °F 71.6 °F 74% 30.16 in 10.0 mi ENE 6.9 mph - N/A   Mostly Cloudy
2:53 PM 81.0 °F 84.9 °F 71.1 °F 72% 30.16 in 10.0 mi ENE 9.2 mph - N/A   Mostly Cloudy
3:53 PM 79.0 °F - 71.1 °F 77% 30.16 in 10.0 mi ENE 6.9 mph - N/A   Mostly Cloudy
4:00 PM 78.8 °F - 71.6 °F 78% 30.17 in 10.0 mi NE 6.9 mph - N/A   Clear
4:53 PM 77.0 °F - 70.0 °F 79% 30.17 in 10.0 mi ENE 8.1 mph - N/A   Clear
5:53 PM 73.0 °F - 70.0 °F 90% 30.18 in 10.0 mi ENE 3.5 mph - N/A   Clear
6:53 PM 70.0 °F - 69.1 °F 97% 30.19 in 10.0 mi ENE 3.5 mph - N/A   Clear
7:53 PM 68.0 °F - 68.0 °F 100% 30.20 in 10.0 mi Calm Calm - N/A   Clear
8:53 PM 66.9 °F - 66.9 °F 100% 30.20 in 8.0 mi Calm Calm - N/A   Clear
9:53 PM 66.0 °F - 66.0 °F 100% 30.21 in 10.0 mi Calm Calm - N/A   Clear
10:22 PM 66.2 °F - 66.2 °F 100% 30.21 in 1.8 mi Calm Calm - N/A   Clear
10:45 PM 66.2 °F - 66.2 °F 100% 30.21 in 3.0 mi Calm Calm - N/A   Partly Cloudy
10:53 PM 64.9 °F - 64.9 °F 100% 30.20 in 10.0 mi Calm Calm - N/A   Partly Cloudy
11:12 PM 69.8 °F - 69.8 °F 100% 30.20 in 9.0 mi NNW 6.9 mph - N/A   Mostly Cloudy
11:19 PM 69.8 °F - 69.8 °F 100% 30.20 in 8.0 mi North 6.9 mph - N/A   Scattered Clouds
11:28 PM 69.8 °F - 69.8 °F 100% 30.20 in 7.0 mi NNW 5.8 mph - N/A   Mostly Cloudy
11:36 PM 69.8 °F - 69.8 °F 100% 30.20 in 7.0 mi North 6.9 mph - N/A   Partly Cloudy
11:51 PM 69.8 °F - 69.8 °F 100% 30.20 in 7.0 mi North 6.9 mph - N/A   Mostly Cloudy
11:53 PM 70.0 °F - 70.0 °F 100% 30.19 in 7.0 mi North 5.8 mph - N/A   Mostly Cloudy